Вернуться в каталог

STARLINK-5304

АктивенСвязьVLEO
NORAD 54843·PAYLOAD·🇺🇸 United States

Запущен Dec 28, 2022 с Cape Canaveral Space Force Station

Loading…

Ближайшие Пролёты (ближайшие 24 часа)

TLE

СвежийSource: CelesTrak SupGP

Эпоха: Sep 15, 2026, 01:47 UTC

1 54843C 22177Z   26258.07479167  .00038192  00000+0  13834-2 0  2588
2 54843  43.0024 143.3969 0001567 276.9139  94.1586 15.27557458    13

Отслеживайте STARLINK-5304 в реальном времени с AllMySat

Download on the App Store